This is the latest recevied weather packets stored in our database for station/object OE3BCB-14. If no packets are shown the sender has not sent any weather packets the latest 10 day(s).
| Time | Temp. | Humidity | Pressure | Rain* | Wind** | Luminosity | Snow |
|---|---|---|---|---|---|---|---|
| 1777660964 | 17.22° C | 27% | 1027.1 hPa | - | - | 0 W/m² | - |
| 1777660662 | 17.22° C | 27% | 1027.1 hPa | - | - | 0 W/m² | - |
| 1777660359 | 17.22° C | 27% | 1027 hPa | - | - | 0 W/m² | - |
| 1777660057 | 17.22° C | 26% | 1026.9 hPa | - | - | 0 W/m² | - |
| 1777659754 | 17.78° C | 25% | 1026.9 hPa | - | - | 0 W/m² | - |
| 1777659452 | 18.89° C | 25% | 1026.8 hPa | - | - | 0 W/m² | - |
| 1777659149 | 18.89° C | 25% | 1026.7 hPa | - | - | 1 W/m² | - |
| 1777658847 | 19.44° C | 24% | 1026.7 hPa | - | - | 1 W/m² | - |
| 1777658545 | 20° C | 24% | 1026.7 hPa | - | - | 2 W/m² | - |
| 1777658242 | 20.56° C | 23% | 1026.7 hPa | - | - | 3 W/m² | - |
| 1777657940 | 21.11° C | 23% | 1026.7 hPa | - | - | 5 W/m² | - |
| 1777657638 | 21.67° C | 23% | 1026.6 hPa | - | - | 6 W/m² | - |
| 1777657335 | 22.22° C | 22% | 1026.6 hPa | - | - | 7 W/m² | - |
| 1777657032 | 22.78° C | 22% | 1026.6 hPa | - | - | 9 W/m² | - |
| 1777656730 | 23.89° C | 21% | 1026.5 hPa | - | - | 11 W/m² | - |
| 1777656428 | 25° C | 21% | 1026.6 hPa | - | - | 17 W/m² | - |
| 1777655823 | 23.89° C | 22% | 1026.5 hPa | - | - | 24 W/m² | - |
| 1777655520 | 23.33° C | 21% | 1026.6 hPa | - | - | 13 W/m² | - |
| 1777655218 | 23.89° C | 20% | 1026.5 hPa | - | - | 14 W/m² | - |
| 1777654916 | 25° C | 20% | 1026.6 hPa | - | - | 21 W/m² | - |
| 1777654613 | 26.67° C | 19% | 1026.6 hPa | - | - | 17 W/m² | - |
| 1777654311 | 27.78° C | 19% | 1026.7 hPa | - | - | 34 W/m² | - |
| 1777654008 | 28.89° C | 19% | 1026.7 hPa | - | - | 59 W/m² | - |
| 1777653706 | 29.44° C | 20% | 1026.7 hPa | - | - | 67 W/m² | - |
| 1777653404 | 30.56° C | 19% | 1026.8 hPa | - | - | 74 W/m² | - |
* Rain since midnight (hover to see other rain measurements)
** Current wind speed in m/s (hover to see current wind gust speed)